| time (UTC) | temp F | wind direction | speed MPH | gust MPH | rain 1hr in | rain 24hr in | rain mn in | humidity % | barometer mb |
| 20260508075633 | 57 | 249 | 0.0 | 0.0 | 0.00 | 0.00 | 0.00 | 41 | 1023.5 |
| 20260508075127 | 57 | 274 | 0.0 | 0.0 | 0.00 | 0.00 | 0.00 | 41 | 1023.5 |
| 20260508074621 | 57 | 250 | 0.0 | 0.0 | 0.00 | 0.00 | 0.00 | 42 | 1023.5 |
| 20260508074118 | 57 | 250 | 0.0 | 0.0 | 0.00 | 0.00 | 0.00 | 42 | 1023.5 |
| 20260508073612 | 57 | 248 | 0.0 | 0.0 | 0.00 | 0.00 | 0.00 | 42 | 1023.1 |
| 20260508073107 | 57 | 287 | 0.0 | 0.0 | 0.00 | 0.00 | 0.00 | 42 | 1023.5 |
| 20260508072603 | 57 | 288 | 0.0 | 0.0 | 0.00 | 0.00 | 0.00 | 43 | 1023.5 |
| 20260508072056 | 58 | 277 | 0.0 | 0.0 | 0.00 | 0.00 | 0.00 | 42 | 1023.5 |
| 20260508071552 | 58 | 269 | 0.0 | 0.0 | 0.00 | 0.00 | 0.00 | 43 | 1023.5 |
| 20260508071048 | 58 | 250 | 0.0 | 0.0 | 0.00 | 0.00 | 0.00 | 43 | 1023.5 |
| 20260508070542 | 58 | 269 | 0.0 | 0.0 | 0.00 | 0.00 | 0.00 | 42 | 1023.1 |
| 20260508070037 | 58 | 296 | 0.0 | 0.0 | 0.00 | 0.00 | 0.00 | 42 | 1023.1 |
| 20260508065533 | 58 | 265 | 0.0 | 0.0 | 0.00 | 0.00 | 0.00 | 42 | 1023.5 |
| 20260508065029 | 59 | 7 | 0.0 | 0.0 | 0.00 | 0.00 | 0.00 | 42 | 1023.5 |
| 20260508064522 | 59 | 278 | 0.0 | 0.0 | 0.00 | 0.00 | 0.00 | 42 | 1023.1 |
| 20260508064018 | 59 | 277 | 0.0 | 0.0 | 0.00 | 0.00 | 0.00 | 42 | 1023.5 |
| 20260508063512 | 59 | 100 | 0.0 | 0.0 | 0.00 | 0.00 | 0.00 | 41 | 1023.1 |
| 20260508063007 | 59 | 27 | 0.0 | 0.0 | 0.00 | 0.00 | 0.00 | 41 | 1023.5 |
| 20260508062502 | 59 | 271 | 0.0 | 0.0 | 0.00 | 0.00 | 0.00 | 40 | 1023.1 |
| 20260508061956 | 59 | 270 | 0.0 | 0.0 | 0.00 | 0.00 | 0.00 | 40 | 1023.1 |
| 20260508061452 | 59 | 258 | 0.0 | 0.0 | 0.00 | 0.00 | 0.00 | 41 | 1023.1 |
| 20260508060950 | 60 | 281 | 0.0 | 0.0 | 0.00 | 0.00 | 0.00 | 42 | 1023.1 |
| 20260508060944 | 60 | 257 | 0.0 | 0.0 | 0.00 | 0.00 | 0.00 | 40 | 1023.5 |
| 20260508055937 | 60 | 270 | 0.0 | 0.0 | 0.00 | 0.00 | 0.00 | 40 | 1023.1 |
| 20260508055436 | 60 | 270 | 0.0 | 0.0 | 0.00 | 0.00 | 0.00 | 39 | 1023.1 |
| 20260508055429 | 60 | 277 | 0.0 | 0.0 | 0.00 | 0.00 | 0.00 | 39 | 1023.1 |
| 20260508055044 | 60 | 286 | 0.0 | 0.0 | 0.00 | 0.00 | 0.00 | 38 | 1023.1 |
| 20260508054422 | 60 | 325 | 0.0 | 0.0 | 0.00 | 0.00 | 0.00 | 40 | 1023.1 |
| 20260508054413 | 60 | 253 | 0.0 | 0.0 | 0.00 | 0.00 | 0.00 | 38 | 1023.1 |
| 20260508052908 | 61 | 232 | 0.0 | 0.0 | 0.00 | 0.00 | 0.00 | 38 | 1023.1 |
| 20260508052403 | 61 | 241 | 0.0 | 0.0 | 0.00 | 0.00 | 0.00 | 37 | 1023.1 |
| 20260508051900 | 61 | 252 | 0.0 | 0.0 | 0.00 | 0.00 | 0.00 | 37 | 1023.1 |
| 20260508051853 | 61 | 246 | 0.0 | 0.0 | 0.00 | 0.00 | 0.00 | 38 | 1023.1 |
| 20260508050848 | 62 | 220 | 0.0 | 0.0 | 0.00 | 0.00 | 0.00 | 36 | 1023.1 |
| 20260508050342 | 62 | 276 | 0.0 | 0.0 | 0.00 | 0.00 | 0.00 | 36 | 1023.1 |
| 20260508045839 | 62 | 41 | 0.0 | 0.0 | 0.00 | 0.00 | 0.00 | 36 | 1023.1 |
| 20260508045833 | 62 | 219 | 0.0 | 0.0 | 0.00 | 0.00 | 0.00 | 36 | 1023.1 |
| 20260508044826 | 62 | 272 | 0.0 | 0.0 | 0.00 | 0.00 | 0.00 | 37 | 1023.1 |
| 20260508044321 | 63 | 274 | 0.0 | 0.0 | 0.00 | 0.00 | 0.00 | 37 | 1023.1 |
| 20260508043817 | 63 | 19 | 0.0 | 0.0 | 0.00 | 0.00 | 0.00 | 37 | 1023.1 |
| 20260508043311 | 63 | 241 | 0.0 | 0.0 | 0.00 | 0.00 | 0.00 | 35 | 1023.1 |
| 20260508042807 | 64 | 233 | 0.0 | 0.0 | 0.00 | 0.00 | 0.00 | 32 | 1023.1 |
| 20260508042306 | 64 | 259 | 0.0 | 0.0 | 0.00 | 0.00 | 0.00 | 31 | 1023.1 |
| 20260508041757 | 64 | 348 | 0.0 | 0.0 | 0.00 | 0.00 | 0.00 | 30 | 1022.8 |
| 20260508041251 | 64 | 28 | 0.0 | 0.0 | 0.00 | 0.00 | 0.00 | 30 | 1022.8 |
| 20260508040748 | 64 | 263 | 0.0 | 0.0 | 0.00 | 0.00 | 0.00 | 31 | 1022.8 |
| 20260508040241 | 65 | 204 | 0.0 | 0.0 | 0.00 | 0.00 | 0.00 | 31 | 1022.8 |
| 20260508035736 | 65 | 272 | 0.0 | 0.0 | 0.00 | 0.00 | 0.00 | 31 | 1022.4 |
| 20260508035232 | 65 | 275 | 0.0 | 0.0 | 0.00 | 0.00 | 0.00 | 31 | 1022.4 |
| 20260508034726 | 66 | 241 | 0.0 | 0.0 | 0.00 | 0.00 | 0.00 | 32 | 1022.8 |
| 20260508034221 | 67 | 251 | 0.0 | 0.0 | 0.00 | 0.00 | 0.00 | 32 | 1022.4 |
| 20260508033717 | 67 | 213 | 0.0 | 0.0 | 0.00 | 0.00 | 0.00 | 31 | 1022.4 |
| 20260508033211 | 68 | 241 | 0.0 | 0.0 | 0.00 | 0.00 | 0.00 | 30 | 1022.4 |
| 20260508032706 | 68 | 237 | 0.0 | 0.0 | 0.00 | 0.00 | 0.00 | 29 | 1022.4 |
| 20260508032202 | 68 | 256 | 0.0 | 0.0 | 0.00 | 0.00 | 0.00 | 31 | 1022.1 |
| 20260508031655 | 69 | 208 | 0.0 | 0.0 | 0.00 | 0.00 | 0.00 | 29 | 1022.4 |
| 20260508031150 | 69 | 149 | 0.0 | 0.0 | 0.00 | 0.00 | 0.00 | 29 | 1022.1 |
| 20260508030647 | 69 | 247 | 0.0 | 0.0 | 0.00 | 0.00 | 0.00 | 28 | 1022.4 |
| 20260508030141 | 70 | 242 | 0.0 | 0.0 | 0.00 | 0.00 | 0.00 | 28 | 1022.4 |
| 20260508025637 | 70 | 237 | 0.0 | 1.0 | 0.00 | 0.00 | 0.00 | 28 | 1022.1 |
| 20260508025132 | 71 | 272 | 0.0 | 1.0 | 0.00 | 0.00 | 0.00 | 28 | 1022.1 |
| 20260508024626 | 71 | 304 | 0.0 | 1.0 | 0.00 | 0.00 | 0.00 | 26 | 1022.1 |
| 20260508024121 | 72 | 112 | 0.0 | 0.0 | 0.00 | 0.00 | 0.00 | 24 | 1022.4 |
| 20260508023617 | 72 | 163 | 0.0 | 0.0 | 0.00 | 0.00 | 0.00 | 24 | 1022.1 |
| 20260508023110 | 72 | 335 | 0.0 | 0.0 | 0.00 | 0.00 | 0.00 | 23 | 1022.1 |
| 20260508022606 | 73 | 259 | 0.0 | 0.0 | 0.00 | 0.00 | 0.00 | 22 | 1021.8 |
| 20260508022101 | 73 | 248 | 0.0 | 0.0 | 0.00 | 0.00 | 0.00 | 22 | 1022.1 |
| 20260508021556 | 73 | 258 | 0.0 | 0.0 | 0.00 | 0.00 | 0.00 | 21 | 1021.8 |
| 20260508021051 | 73 | 353 | 0.0 | 0.0 | 0.00 | 0.00 | 0.00 | 22 | 1022.1 |
| 20260508020546 | 73 | 286 | 0.0 | 0.0 | 0.00 | 0.00 | 0.00 | 22 | 1021.8 |
| 20260508020040 | 74 | 297 | 0.0 | 1.0 | 0.00 | 0.00 | 0.00 | 22 | 1022.1 |
| 20260508015535 | 74 | 325 | 0.0 | 2.0 | 0.00 | 0.00 | 0.00 | 21 | 1021.8 |
| 20260508015032 | 74 | 68 | 0.0 | 2.0 | 0.00 | 0.00 | 0.00 | 21 | 1022.1 |
| 20260508014525 | 74 | 275 | 0.0 | 2.0 | 0.00 | 0.00 | 0.00 | 23 | 1022.1 |
| 20260508014020 | 74 | 253 | 0.0 | 1.0 | 0.00 | 0.00 | 0.00 | 22 | 1021.8 |
| 20260508013517 | 75 | 286 | 0.0 | 1.0 | 0.00 | 0.00 | 0.00 | 22 | 1021.8 |
| 20260508013010 | 75 | 290 | 0.0 | 0.0 | 0.00 | 0.00 | 0.00 | 22 | 1021.8 |
| 20260508012505 | 76 | 208 | 0.0 | 1.0 | 0.00 | 0.00 | 0.00 | 22 | 1022.1 |
| 20260508012003 | 76 | 289 | 0.0 | 2.0 | 0.00 | 0.00 | 0.00 | 22 | 1022.1 |
| 20260508011957 | 76 | 302 | 0.0 | 2.0 | 0.00 | 0.00 | 0.00 | 22 | 1022.1 |
| 20260508010951 | 77 | 15 | 0.0 | 2.0 | 0.00 | 0.00 | 0.00 | 22 | 1022.1 |
| 20260508010446 | 77 | 106 | 0.0 | 2.0 | 0.00 | 0.00 | 0.00 | 21 | 1022.1 |
| 20260508005940 | 77 | 356 | 0.0 | 1.0 | 0.00 | 0.00 | 0.00 | 18 | 1022.1 |
| 20260508005929 | 77 | 81 | 0.0 | 3.0 | 0.00 | 0.00 | 0.00 | 19 | 1022.1 |
| 20260508005534 | 77 | 193 | 0.0 | 1.0 | 0.00 | 0.00 | 0.00 | 18 | 1021.8 |
| 20260508005034 | 77 | 127 | 0.0 | 2.0 | 0.00 | 0.00 | 0.00 | 17 | 1022.1 |
| 20260508003920 | 77 | 289 | 0.0 | 3.0 | 0.00 | 0.00 | 0.00 | 19 | 1022.1 |
| 20260508003417 | 77 | 43 | 0.0 | 2.0 | 0.00 | 0.00 | 0.00 | 20 | 1022.1 |
| 20260508002909 | 77 | 148 | 0.0 | 2.0 | 0.00 | 0.00 | 0.00 | 20 | 1022.1 |
| 20260508002405 | 77 | 276 | 0.0 | 3.0 | 0.00 | 0.00 | 0.00 | 19 | 1021.8 |
| 20260508001902 | 78 | 343 | 0.0 | 4.0 | 0.00 | 0.00 | 0.00 | 17 | 1021.8 |
| 20260508001855 | 78 | 40 | 0.0 | 4.0 | 0.00 | 0.00 | 0.00 | 16 | 1021.8 |
| 20260508000850 | 78 | 83 | 0.0 | 2.0 | 0.00 | 0.00 | 0.00 | 16 | 1022.1 |
| 20260508000349 | 79 | 343 | 0.0 | 2.0 | 0.00 | 0.00 | 0.00 | 14 | 1022.1 |
| 20260508000342 | 79 | 63 | 0.0 | 2.0 | 0.00 | 0.00 | 0.00 | 14 | 1021.8 |
| 20260507235336 | 79 | 41 | 0.0 | 2.0 | 0.00 | 0.00 | 0.00 | 15 | 1022.1 |
| 20260507235331 | 79 | 299 | 0.0 | 3.0 | 0.00 | 0.00 | 0.00 | 12 | 1022.1 |
| 20260507234326 | 79 | 237 | 0.0 | 3.0 | 0.00 | 0.00 | 0.00 | 12 | 1022.1 |
| 20260507234320 | 79 | 271 | 0.0 | 2.0 | 0.00 | 0.00 | 0.00 | 11 | 1022.1 |
| 20260507233315 | 79 | 6 | 0.0 | 4.0 | 0.00 | 0.00 | 0.00 | 12 | 1021.8 |
| 20260507232810 | 79 | 305 | 0.0 | 4.0 | 0.00 | 0.00 | 0.00 | 13 | 1022.1 |
| 20260507232306 | 79 | 286 | 0.0 | 2.0 | 0.00 | 0.00 | 0.00 | 12 | 1022.1 |
| 20260507231801 | 79 | 186 | 0.0 | 1.0 | 0.00 | 0.00 | 0.00 | 13 | 1022.1 |
| 20260507231254 | 79 | 104 | 0.0 | 3.0 | 0.00 | 0.00 | 0.00 | 15 | 1022.4 |
| 20260507230753 | 80 | 65 | 0.0 | 2.0 | 0.00 | 0.00 | 0.00 | 13 | 1022.4 |
| 20260507230749 | 80 | 348 | 0.0 | 3.0 | 0.00 | 0.00 | 0.00 | 14 | 1022.4 |
| 20260507230241 | 80 | 45 | 0.0 | 3.0 | 0.00 | 0.00 | 0.00 | 13 | 1022.4 |
| 20260507225234 | 80 | 71 | 0.0 | 3.0 | 0.00 | 0.00 | 0.00 | 11 | 1022.8 |
| 20260507224730 | 80 | 314 | 0.0 | 2.0 | 0.00 | 0.00 | 0.00 | 10 | 1022.8 |
| 20260507224223 | 80 | 224 | 0.0 | 2.0 | 0.00 | 0.00 | 0.00 | 11 | 1022.8 |
| 20260507223719 | 80 | 283 | 0.0 | 2.0 | 0.00 | 0.00 | 0.00 | 10 | 1022.8 |
| 20260507223215 | 80 | 4 | 0.0 | 3.0 | 0.00 | 0.00 | 0.00 | 11 | 1022.8 |
| 20260507222709 | 80 | 103 | 0.0 | 3.0 | 0.00 | 0.00 | 0.00 | 12 | 1023.1 |
| 20260507222204 | 80 | 159 | 0.0 | 2.0 | 0.00 | 0.00 | 0.00 | 10 | 1023.1 |
| 20260507221701 | 80 | 92 | 0.0 | 1.0 | 0.00 | 0.00 | 0.00 | 10 | 1023.5 |
| 20260507221655 | 80 | 82 | 0.0 | 3.0 | 0.00 | 0.00 | 0.00 | 10 | 1023.5 |
| 20260507220649 | 80 | 6 | 0.0 | 3.0 | 0.00 | 0.00 | 0.00 | 14 | 1023.5 |
| 20260507220144 | 80 | 70 | 0.0 | 2.0 | 0.00 | 0.00 | 0.00 | 12 | 1023.5 |
| 20260507215644 | 80 | 348 | 0.0 | 1.0 | 0.00 | 0.00 | 0.00 | 11 | 1023.8 |
| 20260507215134 | 79 | 28 | 0.0 | 3.0 | 0.00 | 0.00 | 0.00 | 11 | 1023.8 |
| 20260507214630 | 79 | 274 | 0.0 | 3.0 | 0.00 | 0.00 | 0.00 | 13 | 1023.5 |
| 20260507214124 | 79 | 188 | 0.0 | 3.0 | 0.00 | 0.00 | 0.00 | 13 | 1023.5 |
| 20260507213618 | 79 | 19 | 0.0 | 2.0 | 0.00 | 0.00 | 0.00 | 14 | 1023.8 |
| 20260507213116 | 79 | 262 | 0.0 | 1.0 | 0.00 | 0.00 | 0.00 | 16 | 1023.8 |
| 20260507212608 | 79 | 266 | 0.0 | 1.0 | 0.00 | 0.00 | 0.00 | 15 | 1024.1 |
| 20260507212103 | 78 | 16 | 0.0 | 1.0 | 0.00 | 0.00 | 0.00 | 15 | 1023.8 |
| 20260507211602 | 78 | 345 | 0.0 | 1.0 | 0.00 | 0.00 | 0.00 | 13 | 1023.8 |
| 20260507211555 | 78 | 16 | 0.0 | 1.0 | 0.00 | 0.00 | 0.00 | 13 | 1024.1 |
| 20260507210548 | 78 | 257 | 0.0 | 1.0 | 0.00 | 0.00 | 0.00 | 13 | 1024.1 |
| 20260507210044 | 77 | 305 | 0.0 | 2.0 | 0.00 | 0.00 | 0.00 | 13 | 1024.1 |
| 20260507205538 | 77 | 308 | 0.0 | 3.0 | 0.00 | 0.00 | 0.00 | 17 | 1024.1 |
| 20260507205034 | 77 | 326 | 0.0 | 3.0 | 0.00 | 0.00 | 0.00 | 20 | 1024.5 |
| 20260507204530 | 77 | 305 | 0.0 | 2.0 | 0.00 | 0.00 | 0.00 | 17 | 1024.5 |
| 20260507204023 | 77 | 19 | 0.0 | 2.0 | 0.00 | 0.00 | 0.00 | 20 | 1024.5 |
| 20260507203518 | 77 | 263 | 0.0 | 3.0 | 0.00 | 0.00 | 0.00 | 20 | 1024.5 |
| 20260507202508 | 77 | 25 | 0.0 | 3.0 | 0.00 | 0.00 | 0.00 | 21 | 1024.5 |
| 20260507202003 | 77 | 214 | 0.0 | 3.0 | 0.00 | 0.00 | 0.00 | 20 | 1024.8 |
| 20260507201459 | 77 | 98 | 0.0 | 2.0 | 0.00 | 0.00 | 0.00 | 20 | 1024.8 |
| 20260507200953 | 76 | 345 | 0.0 | 2.0 | 0.00 | 0.00 | 0.00 | 21 | 1024.8 |
| 20260507200447 | 76 | 128 | 0.0 | 3.0 | 0.00 | 0.00 | 0.00 | 19 | 1024.8 |
| 20260507195944 | 76 | 257 | 0.0 | 3.0 | 0.00 | 0.00 | 0.00 | 21 | 1024.8 |
| 20260507195438 | 75 | 59 | 0.0 | 0.0 | 0.00 | 0.00 | 0.00 | 20 | 1024.8 |
| 20260507194933 | 74 | 61 | 0.0 | 1.0 | 0.00 | 0.00 | 0.00 | 19 | 1024.8 |
| 20260507194430 | 74 | 195 | 0.0 | 1.0 | 0.00 | 0.00 | 0.00 | 23 | 1025.3 |
| 20260507194423 | 74 | 82 | 0.0 | 3.0 | 0.00 | 0.00 | 0.00 | 22 | 1025.3 |
| 20260507193419 | 74 | 104 | 1.0 | 3.0 | 0.00 | 0.00 | 0.00 | 24 | 1025.3 |
| 20260507193414 | 73 | 291 | 0.0 | 2.0 | 0.00 | 0.00 | 0.00 | 23 | 1025.3 |
| 20260507192407 | 73 | 356 | 0.0 | 2.0 | 0.00 | 0.00 | 0.00 | 23 | 1025.3 |
| 20260507192401 | 73 | 168 | 0.0 | 3.0 | 0.00 | 0.00 | 0.00 | 23 | 1025.3 |
| 20260507192005 | 73 | 348 | 0.0 | 3.0 | 0.00 | 0.00 | 0.00 | 24 | 1025.3 |
| 20260507190852 | 73 | 234 | 0.0 | 3.0 | 0.00 | 0.00 | 0.00 | 24 | 1025.3 |
| 20260507190347 | 73 | 51 | 0.0 | 2.0 | 0.00 | 0.00 | 0.00 | 22 | 1025.3 |
| 20260507185843 | 73 | 247 | 0.0 | 1.0 | 0.00 | 0.00 | 0.00 | 23 | 1025.6 |
| 20260507185338 | 73 | 88 | 0.0 | 1.0 | 0.00 | 0.00 | 0.00 | 22 | 1025.9 |
| 20260507184831 | 73 | 302 | 0.0 | 2.0 | 0.00 | 0.00 | 0.00 | 21 | 1025.6 |
| 20260507184328 | 72 | 323 | 0.0 | 3.0 | 0.00 | 0.00 | 0.00 | 23 | 1025.6 |
| 20260507183823 | 72 | 299 | 0.0 | 3.0 | 0.00 | 0.00 | 0.00 | 23 | 1025.9 |
| 20260507183817 | 72 | 134 | 0.0 | 2.0 | 0.00 | 0.00 | 0.00 | 21 | 1025.6 |
| 20260507182813 | 71 | 235 | 0.0 | 2.0 | 0.00 | 0.00 | 0.00 | 22 | 1025.6 |
| 20260507182307 | 71 | 49 | 0.0 | 1.0 | 0.00 | 0.00 | 0.00 | 21 | 1025.9 |
| 20260507181802 | 71 | 97 | 0.0 | 1.0 | 0.00 | 0.00 | 0.00 | 23 | 1025.9 |
| 20260507181258 | 71 | 34 | 0.0 | 1.0 | 0.00 | 0.00 | 0.00 | 23 | 1025.9 |
| 20260507181248 | 71 | 64 | 0.0 | 1.0 | 0.00 | 0.00 | 0.00 | 23 | 1025.9 |
| 20260507180852 | 71 | 6 | 0.0 | 1.0 | 0.00 | 0.00 | 0.00 | 24 | 1025.9 |
| 20260507175743 | 71 | 322 | 0.0 | 1.0 | 0.00 | 0.00 | 0.00 | 25 | 1025.9 |
| 20260507175238 | 71 | 171 | 0.0 | 1.0 | 0.00 | 0.00 | 0.00 | 24 | 1025.9 |
| 20260507175233 | 71 | 230 | 0.0 | 1.0 | 0.00 | 0.00 | 0.00 | 26 | 1025.9 |
| 20260507174228 | 71 | 44 | 0.0 | 1.0 | 0.00 | 0.00 | 0.00 | 23 | 1025.9 |
| 20260507173723 | 71 | 74 | 0.0 | 0.0 | 0.00 | 0.00 | 0.00 | 23 | 1025.9 |
| 20260507173718 | 71 | 192 | 0.0 | 0.0 | 0.00 | 0.00 | 0.00 | 22 | 1025.9 |
| 20260507172713 | 71 | 252 | 0.0 | 0.0 | 0.00 | 0.00 | 0.00 | 23 | 1025.9 |
| 20260507172207 | 71 | 318 | 0.0 | 0.0 | 0.00 | 0.00 | 0.00 | 24 | 1025.9 |
| 20260507171702 | 71 | 221 | 0.0 | 0.0 | 0.00 | 0.00 | 0.00 | 23 | 1025.9 |
| 20260507171158 | 72 | 191 | 0.0 | 0.0 | 0.00 | 0.00 | 0.00 | 25 | 1025.9 |
| 20260507170651 | 72 | 165 | 0.0 | 0.0 | 0.00 | 0.00 | 0.00 | 25 | 1025.9 |
| 20260507170146 | 73 | 255 | 0.0 | 0.0 | 0.00 | 0.00 | 0.00 | 24 | 1025.9 |
| 20260507165642 | 73 | 111 | 0.0 | 0.0 | 0.00 | 0.00 | 0.00 | 21 | 1025.9 |
| 20260507165137 | 73 | 215 | 0.0 | 0.0 | 0.00 | 0.00 | 0.00 | 22 | 1026.3 |
| 20260507165132 | 72 | 200 | 0.0 | 0.0 | 0.00 | 0.00 | 0.00 | 21 | 1026.3 |
| 20260507164127 | 72 | 179 | 0.0 | 0.0 | 0.00 | 0.00 | 0.00 | 22 | 1025.9 |
| 20260507163622 | 71 | 220 | 0.0 | 0.0 | 0.00 | 0.00 | 0.00 | 19 | 1026.3 |
| 20260507163116 | 71 | 217 | 0.0 | 0.0 | 0.00 | 0.00 | 0.00 | 22 | 1025.9 |
| 20260507162613 | 70 | 225 | 0.0 | 0.0 | 0.00 | 0.00 | 0.00 | 20 | 1025.9 |
| 20260507162106 | 70 | 313 | 0.0 | 0.0 | 0.00 | 0.00 | 0.00 | 23 | 1025.9 |
| 20260507161602 | 70 | 188 | 0.0 | 0.0 | 0.00 | 0.00 | 0.00 | 24 | 1026.3 |
| 20260507161057 | 69 | 177 | 0.0 | 0.0 | 0.00 | 0.00 | 0.00 | 20 | 1025.9 |
| 20260507161051 | 69 | 251 | 0.0 | 0.0 | 0.00 | 0.00 | 0.00 | 22 | 1025.9 |
| 20260507160047 | 69 | 233 | 0.0 | 0.0 | 0.00 | 0.00 | 0.00 | 21 | 1025.9 |
| 20260507155545 | 68 | 192 | 0.0 | 0.0 | 0.00 | 0.00 | 0.00 | 21 | 1025.9 |
| 20260507155538 | 67 | 104 | 0.0 | 0.0 | 0.00 | 0.00 | 0.00 | 25 | 1025.9 |
| 20260507155032 | 68 | 229 | 0.0 | 0.0 | 0.00 | 0.00 | 0.00 | 23 | 1025.9 |
| 20260507154028 | 68 | 298 | 0.0 | 0.0 | 0.00 | 0.00 | 0.00 | 27 | 1026.3 |
| 20260507154022 | 68 | 213 | 0.0 | 0.0 | 0.00 | 0.00 | 0.00 | 23 | 1026.3 |
| 20260507153015 | 67 | 186 | 0.0 | 0.0 | 0.00 | 0.00 | 0.00 | 26 | 1025.9 |
| 20260507152514 | 67 | 208 | 0.0 | 0.0 | 0.00 | 0.00 | 0.00 | 29 | 1025.9 |
| 20260507152508 | 67 | 318 | 0.0 | 0.0 | 0.00 | 0.00 | 0.00 | 22 | 1026.3 |
| 20260507151501 | 66 | 188 | 0.0 | 0.0 | 0.00 | 0.00 | 0.00 | 20 | 1026.3 |
| 20260507150958 | 64 | 232 | 0.0 | 0.0 | 0.00 | 0.00 | 0.00 | 22 | 1026.3 |
| 20260507150450 | 63 | 240 | 0.0 | 0.0 | 0.00 | 0.00 | 0.00 | 27 | 1026.3 |
| 20260507145945 | 62 | 241 | 0.0 | 0.0 | 0.00 | 0.00 | 0.00 | 27 | 1026.3 |
| 20260507145442 | 60 | 232 | 0.0 | 0.0 | 0.00 | 0.00 | 0.00 | 32 | 1026.3 |
| 20260507144936 | 59 | 236 | 0.0 | 0.0 | 0.00 | 0.00 | 0.00 | 29 | 1026.3 |
| 20260507144430 | 58 | 200 | 0.0 | 0.0 | 0.00 | 0.00 | 0.00 | 31 | 1026.3 |
| 20260507143926 | 57 | 284 | 0.0 | 0.0 | 0.00 | 0.00 | 0.00 | 37 | 1025.9 |
| 20260507143421 | 56 | 268 | 0.0 | 0.0 | 0.00 | 0.00 | 0.00 | 42 | 1026.3 |
| 20260507142916 | 56 | 276 | 0.0 | 0.0 | 0.00 | 0.00 | 0.00 | 45 | 1026.3 |
| 20260507142411 | 56 | 271 | 0.0 | 0.0 | 0.00 | 0.00 | 0.00 | 48 | 1026.3 |
| 20260507141906 | 55 | 318 | 0.0 | 0.0 | 0.00 | 0.00 | 0.00 | 52 | 1025.9 |
| 20260507141901 | 55 | 247 | 0.0 | 0.0 | 0.00 | 0.00 | 0.00 | 54 | 1025.9 |
| 20260507140857 | 55 | 339 | 0.0 | 0.0 | 0.00 | 0.00 | 0.00 | 59 | 1025.9 |
| 20260507140352 | 54 | 282 | 0.0 | 0.0 | 0.00 | 0.00 | 0.00 | 64 | 1025.6 |
| 20260507140347 | 54 | 257 | 0.0 | 0.0 | 0.00 | 0.00 | 0.00 | 66 | 1025.9 |
| 20260507135341 | 54 | 274 | 0.0 | 0.0 | 0.00 | 0.00 | 0.00 | 68 | 1025.9 |
| 20260507134835 | 54 | 257 | 0.0 | 0.0 | 0.00 | 0.00 | 0.00 | 69 | 1025.9 |
| 20260507134331 | 53 | 271 | 0.0 | 0.0 | 0.00 | 0.00 | 0.00 | 69 | 1025.6 |
| 20260507133828 | 53 | 265 | 0.0 | 0.0 | 0.00 | 0.00 | 0.00 | 68 | 1025.6 |
| 20260507133821 | 53 | 266 | 0.0 | 0.0 | 0.00 | 0.00 | 0.00 | 68 | 1025.6 |
| 20260507132816 | 53 | 270 | 0.0 | 0.0 | 0.00 | 0.00 | 0.00 | 68 | 1025.6 |
| 20260507132311 | 54 | 270 | 0.0 | 0.0 | 0.00 | 0.00 | 0.00 | 66 | 1025.6 |
| 20260507131805 | 54 | 270 | 0.0 | 0.0 | 0.00 | 0.00 | 0.00 | 66 | 1025.6 |
| 20260507131301 | 54 | 270 | 0.0 | 0.0 | 0.00 | 0.00 | 0.00 | 65 | 1025.6 |
| 20260507130757 | 54 | 270 | 0.0 | 0.0 | 0.00 | 0.00 | 0.00 | 64 | 1025.3 |
| 20260507130747 | 54 | 270 | 0.0 | 0.0 | 0.00 | 0.00 | 0.00 | 62 | 1025.3 |
| 20260507130352 | 54 | 270 | 0.0 | 0.0 | 0.00 | 0.00 | 0.00 | 63 | 1025.3 |
| 20260507125242 | 54 | 270 | 0.0 | 0.0 | 0.00 | 0.00 | 0.00 | 62 | 1025.3 |
| 20260507125236 | 54 | 271 | 0.0 | 0.0 | 0.00 | 0.00 | 0.00 | 61 | 1025.3 |